Time,TemperatureF,DewpointF,PressureIn,WindDirection,WindDirectionDegrees,WindSpeedMPH,WindSpeedGustMPH,Humidity,HourlyPrecipIn,Conditions,Clouds,dailyrainin,SoftwareType,DateUTC
2013-03-04 00:00:00,54.8,31.5,29.83,WSW,237,5.0,7.0,41,0.00,,,0.00,Wunderground v.1.15,2013-03-04 08:00:00,
2013-03-04 00:06:00,54.6,31.3,29.84,WSW,245,5.0,7.0,41,0.00,,,0.00,Wunderground v.1.15,2013-03-04 08:06:00,
2013-03-04 00:12:00,54.3,31.1,29.84,WSW,246,4.0,5.0,41,0.00,,,0.00,Wunderground v.1.15,2013-03-04 08:12:00,
2013-03-04 00:18:00,54.1,31.5,29.84,WSW,242,4.0,5.0,42,0.00,,,0.00,Wunderground v.1.15,2013-03-04 08:18:00,
2013-03-04 00:24:00,53.8,31.2,29.84,WSW,240,4.0,6.0,42,0.00,,,0.00,Wunderground v.1.15,2013-03-04 08:24:00,
2013-03-04 00:30:00,53.6,31.0,29.84,WSW,238,5.0,5.0,42,0.00,,,0.00,Wunderground v.1.15,2013-03-04 08:30:00,
2013-03-04 00:36:00,53.5,31.0,29.84,WSW,238,4.0,5.0,42,0.00,,,0.00,Wunderground v.1.15,2013-03-04 08:36:00,
2013-03-04 00:42:00,53.4,30.9,29.85,WSW,238,3.0,4.0,42,0.00,,,0.00,Wunderground v.1.15,2013-03-04 08:42:00,
2013-03-04 00:48:00,53.3,31.4,29.85,WSW,237,4.0,7.0,43,0.00,,,0.00,Wunderground v.1.15,2013-03-04 08:48:00,
2013-03-04 00:54:00,53.3,31.4,29.86,SW,233,5.0,5.0,43,0.00,,,0.00,Wunderground v.1.15,2013-03-04 08:54:00,
2013-03-04 01:00:00,53.4,31.4,29.86,SW,232,5.0,7.0,43,0.00,,,0.00,Wunderground v.1.15,2013-03-04 09:00:00,
2013-03-04 01:06:00,53.5,31.5,29.87,SW,233,3.0,7.0,43,0.00,,,0.00,Wunderground v.1.15,2013-03-04 09:06:00,
2013-03-04 01:12:00,53.5,31.5,29.87,SW,234,1.0,3.0,43,0.00,,,0.00,Wunderground v.1.15,2013-03-04 09:12:00,
2013-03-04 01:18:00,53.5,31.5,29.87,SW,234,1.0,3.0,43,0.00,,,0.00,Wunderground v.1.15,2013-03-04 09:18:00,
2013-03-04 01:24:00,53.3,31.4,29.87,SW,234,3.0,5.0,43,0.00,,,0.00,Wunderground v.1.15,2013-03-04 09:24:00,
2013-03-04 01:30:00,53.1,31.2,29.87,SW,226,4.0,4.0,43,0.00,,,0.00,Wunderground v.1.15,2013-03-04 09:30:00,
2013-03-04 01:36:00,52.8,31.5,29.87,SW,223,4.0,4.0,44,0.00,,,0.00,Wunderground v.1.15,2013-03-04 09:36:00,
2013-03-04 01:42:00,52.6,31.3,29.87,SW,222,4.0,4.0,44,0.00,,,0.00,Wunderground v.1.15,2013-03-04 09:42:00,
2013-03-04 01:48:00,52.6,31.3,29.87,SSW,213,4.0,5.0,44,0.00,,,0.00,Wunderground v.1.15,2013-03-04 09:48:00,
2013-03-04 01:54:00,52.4,31.7,29.87,SSW,207,5.0,6.0,45,0.00,,,0.00,Wunderground v.1.15,2013-03-04 09:54:00,
2013-03-04 02:00:00,52.2,31.5,29.87,SSW,206,6.0,6.0,45,0.00,,,0.00,Wunderground v.1.15,2013-03-04 10:00:00,
2013-03-04 02:06:00,52.0,31.3,29.88,SSW,208,5.0,7.0,45,0.00,,,0.00,Wunderground v.1.15,2013-03-04 10:06:00,
2013-03-04 02:12:00,51.8,31.7,29.88,SW,219,6.0,6.0,46,0.00,,,0.00,Wunderground v.1.15,2013-03-04 10:12:00,
2013-03-04 02:18:00,51.8,32.2,29.88,SW,215,8.0,9.0,47,0.00,,,0.00,Wunderground v.1.15,2013-03-04 10:18:00,
2013-03-04 02:24:00,51.7,32.1,29.88,SW,214,7.0,8.0,47,0.00,,,0.00,Wunderground v.1.15,2013-03-04 10:24:00,
2013-03-04 02:30:00,51.6,32.0,29.88,SW,217,7.0,7.0,47,0.00,,,0.00,Wunderground v.1.15,2013-03-04 10:30:00,
2013-03-04 02:36:00,51.8,32.2,29.88,SW,226,8.0,11.0,47,0.00,,,0.00,Wunderground v.1.15,2013-03-04 10:36:00,
2013-03-04 02:42:00,52.1,32.5,29.88,SW,220,10.0,10.0,47,0.00,,,0.00,Wunderground v.1.15,2013-03-04 10:42:00,
2013-03-04 02:48:00,52.1,32.5,29.88,SW,224,10.0,11.0,47,0.00,,,0.00,Wunderground v.1.15,2013-03-04 10:48:00,
2013-03-04 02:54:00,52.1,32.5,29.88,SW,218,10.0,11.0,47,0.00,,,0.00,Wunderground v.1.15,2013-03-04 10:54:00,
2013-03-04 03:00:00,52.1,32.5,29.88,SW,226,10.0,10.0,47,0.00,,,0.00,Wunderground v.1.15,2013-03-04 11:00:00,
2013-03-04 03:06:00,52.2,32.6,29.89,SW,221,10.0,10.0,47,0.00,,,0.00,Wunderground v.1.15,2013-03-04 11:06:00,
2013-03-04 03:12:00,52.2,32.6,29.89,SW,233,9.0,12.0,47,0.00,,,0.00,Wunderground v.1.15,2013-03-04 11:12:00,
2013-03-04 03:18:00,52.4,32.7,29.89,SW,229,9.0,12.0,47,0.00,,,0.00,Wunderground v.1.15,2013-03-04 11:18:00,
2013-03-04 03:24:00,52.5,32.8,29.89,SW,236,8.0,10.0,47,0.00,,,0.00,Wunderground v.1.15,2013-03-04 11:24:00,
2013-03-04 03:30:00,52.6,32.9,29.89,SW,233,8.0,9.0,47,0.00,,,0.00,Wunderground v.1.15,2013-03-04 11:30:00,
2013-03-04 03:36:00,52.5,32.8,29.89,SW,224,9.0,10.0,47,0.00,,,0.00,Wunderground v.1.15,2013-03-04 11:36:00,
2013-03-04 03:42:00,52.4,32.7,29.90,SW,234,9.0,9.0,47,0.00,,,0.00,Wunderground v.1.15,2013-03-04 11:42:00,
2013-03-04 03:48:00,52.3,32.6,29.90,SW,214,8.0,9.0,47,0.00,,,0.00,Wunderground v.1.15,2013-03-04 11:48:00,
2013-03-04 03:54:00,52.0,32.9,29.90,SSW,213,8.0,9.0,48,0.00,,,0.00,Wunderground v.1.15,2013-03-04 11:54:00,
2013-03-04 04:00:00,51.8,32.7,29.90,SW,220,8.0,10.0,48,0.00,,,0.00,Wunderground v.1.15,2013-03-04 12:00:00,
2013-03-04 04:06:00,51.5,33.0,29.91,SW,225,9.0,10.0,49,0.00,,,0.00,Wunderground v.1.15,2013-03-04 12:06:00,
2013-03-04 04:12:00,51.5,33.0,29.91,SW,225,9.0,10.0,49,0.00,,,0.00,Wunderground v.1.15,2013-03-04 12:12:00,
2013-03-04 04:18:00,51.6,33.0,29.91,WSW,238,9.0,12.0,49,0.00,,,0.00,Wunderground v.1.15,2013-03-04 12:18:00,
2013-03-04 04:24:00,51.6,32.5,29.91,WSW,240,8.0,9.0,48,0.00,,,0.00,Wunderground v.1.15,2013-03-04 12:24:00,
2013-03-04 04:30:00,51.6,32.5,29.92,WSW,250,7.0,7.0,48,0.00,,,0.00,Wunderground v.1.15,2013-03-04 12:30:00,
2013-03-04 04:36:00,51.5,32.4,29.92,SW,232,6.0,8.0,48,0.00,,,0.00,Wunderground v.1.15,2013-03-04 12:36:00,
2013-03-04 04:42:00,51.3,32.3,29.92,WSW,244,7.0,8.0,48,0.00,,,0.00,Wunderground v.1.15,2013-03-04 12:42:00,
2013-03-04 04:48:00,51.2,32.2,29.92,SW,232,5.0,8.0,48,0.00,,,0.00,Wunderground v.1.15,2013-03-04 12:48:00,
2013-03-04 04:54:00,50.9,32.4,29.92,SW,225,6.0,8.0,49,0.00,,,0.00,Wunderground v.1.15,2013-03-04 12:54:00,
2013-03-04 05:00:00,50.7,32.2,29.93,SW,218,6.0,6.0,49,0.00,,,0.00,Wunderground v.1.15,2013-03-04 13:00:00,
2013-03-04 05:06:00,50.6,32.1,29.93,SW,214,5.0,6.0,49,0.00,,,0.00,Wunderground v.1.15,2013-03-04 13:06:00,
2013-03-04 05:12:00,50.5,32.0,29.93,SW,214,2.0,3.0,49,0.00,,,0.00,Wunderground v.1.15,2013-03-04 13:12:00,
2013-03-04 05:18:00,50.3,31.8,29.93,SW,214,2.0,3.0,49,0.00,,,0.00,Wunderground v.1.15,2013-03-04 13:18:00,
2013-03-04 05:24:00,50.1,31.7,29.93,SW,214,3.0,4.0,49,0.00,,,0.00,Wunderground v.1.15,2013-03-04 13:24:00,
2013-03-04 05:30:00,49.8,31.4,29.93,SW,214,3.0,3.0,49,0.00,,,0.00,Wunderground v.1.15,2013-03-04 13:30:00,
2013-03-04 05:36:00,49.5,31.6,29.93,SW,215,3.0,5.0,50,0.00,,,0.00,Wunderground v.1.15,2013-03-04 13:36:00,
2013-03-04 05:42:00,49.4,32.0,29.93,SW,215,4.0,5.0,51,0.00,,,0.00,Wunderground v.1.15,2013-03-04 13:42:00,
2013-03-04 05:48:00,49.3,31.9,29.93,SW,227,4.0,6.0,51,0.00,,,0.00,Wunderground v.1.15,2013-03-04 13:48:00,
2013-03-04 05:54:00,49.4,32.0,29.93,SW,223,5.0,7.0,51,0.00,,,0.00,Wunderground v.1.15,2013-03-04 13:54:00,
2013-03-04 06:00:00,49.5,32.1,29.93,SW,222,5.0,5.0,51,0.00,,,0.00,Wunderground v.1.15,2013-03-04 14:00:00,
2013-03-04 06:06:00,49.3,31.9,29.94,SW,222,2.0,5.0,51,0.00,,,0.00,Wunderground v.1.15,2013-03-04 14:06:00,
2013-03-04 06:12:00,49.2,31.8,29.94,SW,222,2.0,3.0,51,0.00,,,0.00,Wunderground v.1.15,2013-03-04 14:12:00,
2013-03-04 06:18:00,49.0,31.6,29.95,SW,222,3.0,6.0,51,0.00,,,0.00,Wunderground v.1.15,2013-03-04 14:18:00,
2013-03-04 06:24:00,49.0,32.1,29.95,SW,224,4.0,5.0,52,0.00,,,0.00,Wunderground v.1.15,2013-03-04 14:24:00,
2013-03-04 06:30:00,49.1,31.7,29.96,WNW,292,3.0,3.0,51,0.00,,,0.00,Wunderground v.1.15,2013-03-04 14:30:00,
2013-03-04 06:36:00,49.2,31.3,29.96,West,273,4.0,7.0,50,0.00,,,0.00,Wunderground v.1.15,2013-03-04 14:36:00,
2013-03-04 06:42:00,49.6,31.7,29.96,West,269,5.0,6.0,50,0.00,,,0.00,Wunderground v.1.15,2013-03-04 14:42:00,
2013-03-04 06:48:00,49.9,32.0,29.96,West,265,4.0,6.0,50,0.00,,,0.00,Wunderground v.1.15,2013-03-04 14:48:00,
2013-03-04 06:54:00,50.3,31.8,29.96,West,260,4.0,6.0,49,0.00,,,0.00,Wunderground v.1.15,2013-03-04 14:54:00,
2013-03-04 07:00:00,50.8,31.8,29.96,West,259,4.0,4.0,48,0.00,,,0.00,Wunderground v.1.15,2013-03-04 15:00:00,
2013-03-04 07:06:00,51.4,31.8,29.97,SW,236,4.0,4.0,47,0.00,,,0.00,Wunderground v.1.15,2013-03-04 15:06:00,
2013-03-04 07:12:00,51.9,31.7,29.97,WSW,242,2.0,3.0,46,0.00,,,0.00,Wunderground v.1.15,2013-03-04 15:12:00,
2013-03-04 07:18:00,52.3,32.1,29.98,WSW,242,1.0,3.0,46,0.00,,,0.00,Wunderground v.1.15,2013-03-04 15:18:00,
2013-03-04 07:24:00,52.9,32.1,29.98,WSW,242,1.0,4.0,45,0.00,,,0.00,Wunderground v.1.15,2013-03-04 15:24:00,
2013-03-04 07:30:00,53.5,31.5,29.99,WSW,246,3.0,6.0,43,0.00,,,0.00,Wunderground v.1.15,2013-03-04 15:30:00,
2013-03-04 07:36:00,54.1,31.5,29.99,West,269,3.0,6.0,42,0.00,,,0.00,Wunderground v.1.15,2013-03-04 15:36:00,
2013-03-04 07:42:00,54.6,31.9,29.99,West,269,3.0,4.0,42,0.00,,,0.00,Wunderground v.1.15,2013-03-04 15:42:00,
2013-03-04 07:48:00,55.1,31.8,29.99,West,267,3.0,4.0,41,0.00,,,0.00,Wunderground v.1.15,2013-03-04 15:48:00,
2013-03-04 07:54:00,55.7,31.1,29.99,West,267,2.0,4.0,39,0.00,,,0.00,Wunderground v.1.15,2013-03-04 15:54:00,
2013-03-04 08:00:00,56.3,31.6,29.99,West,267,2.0,2.0,39,0.00,,,0.00,Wunderground v.1.15,2013-03-04 16:00:00,
2013-03-04 08:06:00,57.0,31.6,29.99,WNW,286,2.0,3.0,38,0.00,,,0.00,Wunderground v.1.15,2013-03-04 16:06:00,
2013-03-04 08:12:00,57.8,31.7,29.99,North,360,3.0,4.0,37,0.00,,,0.00,Wunderground v.1.15,2013-03-04 16:12:00,
2013-03-04 08:18:00,58.6,32.4,29.99,NNW,348,3.0,5.0,37,0.00,,,0.00,Wunderground v.1.15,2013-03-04 16:18:00,
2013-03-04 08:24:00,59.1,31.4,30.00,North,360,2.0,3.0,35,0.00,,,0.00,Wunderground v.1.15,2013-03-04 16:24:00,
2013-03-04 08:30:00,59.9,32.2,30.00,North,360,1.0,1.0,35,0.00,,,0.00,Wunderground v.1.15,2013-03-04 16:30:00,
2013-03-04 08:36:00,60.5,32.7,30.00,North,360,0.0,2.0,35,0.00,,,0.00,Wunderground v.1.15,2013-03-04 16:36:00,
2013-03-04 08:42:00,61.2,32.6,30.00,North,360,1.0,1.0,34,0.00,,,0.00,Wunderground v.1.15,2013-03-04 16:42:00,
2013-03-04 08:48:00,61.3,31.9,30.00,ESE,109,0.0,2.0,33,0.00,,,0.00,Wunderground v.1.15,2013-03-04 16:48:00,
2013-03-04 08:54:00,62.0,32.5,30.00,ESE,105,1.0,2.0,33,0.00,,,0.00,Wunderground v.1.15,2013-03-04 16:54:00,
2013-03-04 09:00:00,62.3,32.0,30.00,ESE,103,1.0,1.0,32,0.00,,,0.00,Wunderground v.1.15,2013-03-04 17:00:00,
2013-03-04 09:06:00,63.1,32.7,30.00,ENE,62,1.0,2.0,32,0.00,,,0.00,Wunderground v.1.15,2013-03-04 17:06:00,
2013-03-04 09:12:00,63.7,33.3,30.00,NE,34,1.0,2.0,32,0.00,,,0.00,Wunderground v.1.15,2013-03-04 17:12:00,
2013-03-04 09:18:00,63.8,32.6,30.00,NNE,12,1.0,3.0,31,0.00,,,0.00,Wunderground v.1.15,2013-03-04 17:18:00,
2013-03-04 09:24:00,63.9,32.6,30.00,NNE,14,1.0,2.0,31,0.00,,,0.00,Wunderground v.1.15,2013-03-04 17:24:00,
2013-03-04 09:30:00,64.5,33.2,30.00,NNE,15,1.0,1.0,31,0.00,,,0.00,Wunderground v.1.15,2013-03-04 17:30:00,
2013-03-04 09:36:00,65.1,32.9,30.00,NNE,17,2.0,5.0,30,0.00,,,0.00,Wunderground v.1.15,2013-03-04 17:36:00,
2013-03-04 09:42:00,65.5,33.2,29.99,NW,307,3.0,3.0,30,0.00,,,0.00,Wunderground v.1.15,2013-03-04 17:42:00,
2013-03-04 09:48:00,65.5,32.4,29.99,ENE,63,2.0,5.0,29,0.00,,,0.00,Wunderground v.1.15,2013-03-04 17:48:00,
2013-03-04 09:54:00,65.7,33.4,29.99,ENE,59,2.0,3.0,30,0.00,,,0.00,Wunderground v.1.15,2013-03-04 17:54:00,
2013-03-04 10:00:00,66.0,32.8,29.99,ENE,71,2.0,2.0,29,0.00,,,0.00,Wunderground v.1.15,2013-03-04 18:00:00,
2013-03-04 10:06:00,66.1,32.9,29.99,East,101,1.0,2.0,29,0.00,,,0.00,Wunderground v.1.15,2013-03-04 18:06:00,
2013-03-04 10:12:00,66.5,33.2,29.99,East,99,1.0,2.0,29,0.00,,,0.00,Wunderground v.1.15,2013-03-04 18:12:00,
2013-03-04 10:18:00,66.3,32.2,29.99,East,99,2.0,2.0,28,0.00,,,0.00,Wunderground v.1.15,2013-03-04 18:18:00,
2013-03-04 10:24:00,66.2,32.1,29.99,SE,130,1.0,1.0,28,0.00,,,0.00,Wunderground v.1.15,2013-03-04 18:24:00,
2013-03-04 10:30:00,66.7,31.6,29.99,SE,130,1.0,1.0,27,0.00,,,0.00,Wunderground v.1.15,2013-03-04 18:30:00,
2013-03-04 10:32:00,66.8,31.7,29.99,SE,131,1.0,4.0,27,0.00,,,0.00,Wunderground v.1.15,2013-03-04 18:32:00,
2013-03-04 10:36:00,66.8,32.6,29.99,SSE,150,2.0,4.0,28,0.00,,,0.00,Wunderground v.1.15,2013-03-04 18:36:00,
2013-03-04 10:42:00,66.7,32.5,29.99,SSE,150,1.0,2.0,28,0.00,,,0.00,Wunderground v.1.15,2013-03-04 18:42:00,
2013-03-04 10:48:00,66.7,31.6,29.99,SSE,163,1.0,2.0,27,0.00,,,0.00,Wunderground v.1.15,2013-03-04 18:48:00,
2013-03-04 10:54:00,67.2,32.1,29.99,SSW,211,2.0,4.0,27,0.00,,,0.00,Wunderground v.1.15,2013-03-04 18:54:00,
2013-03-04 11:00:00,67.4,32.2,29.99,SW,220,3.0,3.0,27,0.00,,,0.00,Wunderground v.1.15,2013-03-04 19:00:00,
2013-03-04 11:06:00,67.6,32.4,29.99,SW,221,3.0,4.0,27,0.00,,,0.00,Wunderground v.1.15,2013-03-04 19:06:00,
2013-03-04 11:12:00,67.9,31.7,29.99,SSW,200,3.0,5.0,26,0.00,,,0.00,Wunderground v.1.15,2013-03-04 19:12:00,
2013-03-04 11:18:00,68.7,32.4,29.99,SSW,199,3.0,5.0,26,0.00,,,0.00,Wunderground v.1.15,2013-03-04 19:18:00,
2013-03-04 11:24:00,68.5,31.3,29.99,SSW,199,3.0,4.0,25,0.00,,,0.00,Wunderground v.1.15,2013-03-04 19:24:00,
2013-03-04 11:30:00,68.7,31.4,29.99,SSW,199,3.0,3.0,25,0.00,,,0.00,Wunderground v.1.15,2013-03-04 19:30:00,
2013-03-04 11:36:00,68.6,31.3,29.99,SSW,199,3.0,4.0,25,0.00,,,0.00,Wunderground v.1.15,2013-03-04 19:36:00,
2013-03-04 11:42:00,68.6,31.3,29.99,SSW,199,2.0,3.0,25,0.00,,,0.00,Wunderground v.1.15,2013-03-04 19:42:00,
2013-03-04 11:48:00,69.3,31.9,29.98,SSW,199,1.0,3.0,25,0.00,,,0.00,Wunderground v.1.15,2013-03-04 19:48:00,
2013-03-04 11:54:00,70.2,31.7,29.98,West,266,2.0,5.0,24,0.00,,,0.00,Wunderground v.1.15,2013-03-04 19:54:00,
2013-03-04 12:00:00,69.9,31.4,29.98,WNW,298,3.0,5.0,24,0.00,,,0.00,Wunderground v.1.15,2013-03-04 20:00:00,
2013-03-04 12:06:00,70.2,30.6,29.97,NNW,337,3.0,5.0,23,0.00,,,0.00,Wunderground v.1.15,2013-03-04 20:06:00,
2013-03-04 12:12:00,69.8,31.4,29.97,NE,45,2.0,3.0,24,0.00,,,0.00,Wunderground v.1.15,2013-03-04 20:12:00,
2013-03-04 12:18:00,71.1,31.4,29.97,NW,317,3.0,4.0,23,0.00,,,0.00,Wunderground v.1.15,2013-03-04 20:18:00,
2013-03-04 12:24:00,71.7,30.8,29.97,NNW,341,3.0,5.0,22,0.00,,,0.00,Wunderground v.1.15,2013-03-04 20:24:00,
2013-03-04 12:30:00,72.5,31.5,29.96,NW,315,4.0,5.0,22,0.00,,,0.00,Wunderground v.1.15,2013-03-04 20:30:00,
2013-03-04 12:36:00,72.0,31.0,29.96,NW,321,4.0,5.0,22,0.00,,,0.00,Wunderground v.1.15,2013-03-04 20:36:00,
2013-03-04 12:42:00,71.6,30.7,29.96,NW,324,2.0,2.0,22,0.00,,,0.00,Wunderground v.1.15,2013-03-04 20:42:00,
2013-03-04 12:48:00,71.8,30.9,29.96,North,360,1.0,4.0,22,0.00,,,0.00,Wunderground v.1.15,2013-03-04 20:48:00,
2013-03-04 12:54:00,72.6,30.4,29.96,North,360,2.0,3.0,21,0.00,,,0.00,Wunderground v.1.15,2013-03-04 20:54:00,
2013-03-04 13:00:00,72.3,30.1,29.96,ENE,67,3.0,3.0,21,0.00,,,0.00,Wunderground v.1.15,2013-03-04 21:00:00,
2013-03-04 13:06:00,72.1,30.0,29.95,SW,214,3.0,6.0,21,0.00,,,0.00,Wunderground v.1.15,2013-03-04 21:06:00,
2013-03-04 13:12:00,72.1,30.0,29.95,SW,215,3.0,3.0,21,0.00,,,0.00,Wunderground v.1.15,2013-03-04 21:12:00,
2013-03-04 13:18:00,72.9,29.4,29.95,SW,216,1.0,3.0,20,0.00,,,0.00,Wunderground v.1.15,2013-03-04 21:18:00,
2013-03-04 13:24:00,72.8,29.4,29.95,South,171,1.0,2.0,20,0.00,,,0.00,Wunderground v.1.15,2013-03-04 21:24:00,
2013-03-04 13:30:00,73.0,29.5,29.94,South,171,1.0,1.0,20,0.00,,,0.00,Wunderground v.1.15,2013-03-04 21:30:00,
2013-03-04 13:36:00,73.5,28.7,29.94,SW,226,1.0,4.0,19,0.00,,,0.00,Wunderground v.1.15,2013-03-04 21:36:00,
2013-03-04 13:42:00,73.3,29.8,29.94,SW,226,1.0,1.0,20,0.00,,,0.00,Wunderground v.1.15,2013-03-04 21:42:00,
2013-03-04 13:48:00,73.5,29.9,29.94,SW,226,0.0,1.0,20,0.00,,,0.00,Wunderground v.1.15,2013-03-04 21:48:00,
2013-03-04 13:54:00,75.1,30.0,29.94,NNW,348,2.0,2.0,19,0.00,,,0.00,Wunderground v.1.15,2013-03-04 21:54:00,
2013-03-04 14:00:00,75.6,29.1,29.94,North,355,3.0,3.0,18,0.00,,,0.00,Wunderground v.1.15,2013-03-04 22:00:00,
2013-03-04 14:06:00,74.8,29.8,29.94,North,355,2.0,4.0,19,0.00,,,0.00,Wunderground v.1.15,2013-03-04 22:06:00,
2013-03-04 14:12:00,74.8,29.8,29.94,North,9,1.0,2.0,19,0.00,,,0.00,Wunderground v.1.15,2013-03-04 22:12:00,
2013-03-04 14:18:00,74.7,29.7,29.94,NNE,19,1.0,2.0,19,0.00,,,0.00,Wunderground v.1.15,2013-03-04 22:18:00,
2013-03-04 14:24:00,74.8,29.8,29.94,NW,317,1.0,2.0,19,0.00,,,0.00,Wunderground v.1.15,2013-03-04 22:24:00,
2013-03-04 14:30:00,75.3,28.8,29.94,South,175,1.0,5.0,18,0.00,,,0.00,Wunderground v.1.15,2013-03-04 22:30:00,
2013-03-04 14:36:00,75.8,29.2,29.94,WSW,250,3.0,5.0,18,0.00,,,0.00,Wunderground v.1.15,2013-03-04 22:36:00,
2013-03-04 14:42:00,75.7,27.8,29.94,WSW,257,3.0,4.0,17,0.00,,,0.00,Wunderground v.1.15,2013-03-04 22:42:00,
2013-03-04 14:48:00,75.3,28.8,29.93,WSW,257,1.0,4.0,18,0.00,,,0.00,Wunderground v.1.15,2013-03-04 22:48:00,
2013-03-04 14:54:00,75.5,27.6,29.93,WSW,257,1.0,1.0,17,0.00,,,0.00,Wunderground v.1.15,2013-03-04 22:54:00,
2013-03-04 15:00:00,75.0,28.6,29.94,WSW,255,1.0,2.0,18,0.00,,,0.00,Wunderground v.1.15,2013-03-04 23:00:00,
2013-03-04 15:06:00,75.4,28.9,29.93,WSW,257,1.0,4.0,18,0.00,,,0.00,Wunderground v.1.15,2013-03-04 23:06:00,
2013-03-04 15:12:00,75.4,27.5,29.93,WSW,256,1.0,3.0,17,0.00,,,0.00,Wunderground v.1.15,2013-03-04 23:12:00,
2013-03-04 15:18:00,75.5,27.6,29.93,WSW,256,1.0,3.0,17,0.00,,,0.00,Wunderground v.1.15,2013-03-04 23:18:00,
2013-03-04 15:24:00,75.8,26.4,29.93,SW,225,2.0,4.0,16,0.00,,,0.00,Wunderground v.1.15,2013-03-04 23:24:00,
2013-03-04 15:30:00,75.2,27.4,29.93,SW,215,3.0,3.0,17,0.00,,,0.00,Wunderground v.1.15,2013-03-04 23:30:00,
2013-03-04 15:36:00,75.4,28.9,29.93,SW,215,1.0,3.0,18,0.00,,,0.00,Wunderground v.1.15,2013-03-04 23:36:00,
2013-03-04 15:42:00,75.8,26.4,29.93,SW,236,2.0,2.0,16,0.00,,,0.00,Wunderground v.1.15,2013-03-04 23:42:00,
2013-03-04 15:48:00,75.7,26.3,29.93,SW,236,2.0,2.0,16,0.00,,,0.00,Wunderground v.1.15,2013-03-04 23:48:00,
2013-03-04 15:54:00,75.4,27.5,29.93,SW,226,2.0,7.0,17,0.00,,,0.00,Wunderground v.1.15,2013-03-04 23:54:00,
2013-03-04 16:00:00,75.1,30.0,29.93,SSW,213,4.0,4.0,19,0.00,,,0.00,Wunderground v.1.15,2013-03-05 00:00:00,
2013-03-04 16:06:00,74.9,28.5,29.93,SSW,213,1.0,4.0,18,0.00,,,0.00,Wunderground v.1.15,2013-03-05 00:06:00,
2013-03-04 16:12:00,74.5,29.5,29.92,SSW,213,1.0,2.0,19,0.00,,,0.00,Wunderground v.1.15,2013-03-05 00:12:00,
2013-03-04 16:18:00,74.3,28.0,29.93,SSW,213,1.0,2.0,18,0.00,,,0.00,Wunderground v.1.15,2013-03-05 00:18:00,
2013-03-04 16:24:00,74.4,28.1,29.92,SSW,213,1.0,2.0,18,0.00,,,0.00,Wunderground v.1.15,2013-03-05 00:24:00,
2013-03-04 16:30:00,74.4,28.1,29.92,WNW,300,2.0,2.0,18,0.00,,,0.00,Wunderground v.1.15,2013-03-05 00:30:00,
2013-03-04 16:36:00,74.1,27.9,29.93,WNW,301,3.0,3.0,18,0.00,,,0.00,Wunderground v.1.15,2013-03-05 00:36:00,
2013-03-04 16:42:00,73.4,27.3,29.93,WNW,296,1.0,1.0,18,0.00,,,0.00,Wunderground v.1.15,2013-03-05 00:42:00,
2013-03-04 16:48:00,73.1,28.4,29.93,WNW,296,1.0,2.0,19,0.00,,,0.00,Wunderground v.1.15,2013-03-05 00:48:00,
2013-03-04 16:54:00,72.7,28.0,29.93,South,179,3.0,6.0,19,0.00,,,0.00,Wunderground v.1.15,2013-03-05 00:54:00,
2013-03-04 17:00:00,72.3,27.7,29.93,South,179,4.0,4.0,19,0.00,,,0.00,Wunderground v.1.15,2013-03-05 01:00:00,
2013-03-04 17:06:00,71.9,28.6,29.93,SW,229,4.0,7.0,20,0.00,,,0.00,Wunderground v.1.15,2013-03-05 01:06:00,
2013-03-04 17:12:00,71.3,28.1,29.93,SSW,194,10.0,15.0,20,0.00,,,0.00,Wunderground v.1.15,2013-03-05 01:12:00,
2013-03-04 17:18:00,70.5,27.5,29.93,SSW,199,11.0,15.0,20,0.00,,,0.00,Wunderground v.1.15,2013-03-05 01:18:00,
2013-03-04 17:24:00,69.9,28.2,29.94,SSW,192,10.0,13.0,21,0.00,,,0.00,Wunderground v.1.15,2013-03-05 01:24:00,
2013-03-04 17:30:00,69.4,27.7,29.94,SSW,202,10.0,10.0,21,0.00,,,0.00,Wunderground v.1.15,2013-03-05 01:30:00,
2013-03-04 17:36:00,69.0,28.5,29.94,SSW,195,10.0,13.0,22,0.00,,,0.00,Wunderground v.1.15,2013-03-05 01:36:00,
2013-03-04 17:42:00,68.5,28.1,29.94,South,184,11.0,12.0,22,0.00,,,0.00,Wunderground v.1.15,2013-03-05 01:42:00,
2013-03-04 18:22:00,66.6,26.5,29.96,South,180,12.0,13.0,22,0.00,,,0.00,Wunderground v.1.15,2013-03-05 02:22:00,
2013-03-04 18:28:00,66.4,26.4,29.96,South,184,12.0,14.0,22,0.00,,,0.00,Wunderground v.1.15,2013-03-05 02:28:00,
2013-03-04 18:34:00,66.3,27.4,29.96,South,189,13.0,16.0,23,0.00,,,0.00,Wunderground v.1.15,2013-03-05 02:34:00,
2013-03-04 18:40:00,66.2,27.3,29.96,South,186,14.0,16.0,23,0.00,,,0.00,Wunderground v.1.15,2013-03-05 02:40:00,
2013-03-04 18:46:00,66.0,27.1,29.97,SSW,192,13.0,17.0,23,0.00,,,0.00,Wunderground v.1.15,2013-03-05 02:46:00,
2013-03-04 18:52:00,65.8,26.9,29.97,South,182,13.0,13.0,23,0.00,,,0.00,Wunderground v.1.15,2013-03-05 02:52:00,
2013-03-04 19:14:00,65.0,27.3,29.97,South,181,12.0,12.0,24,0.00,,,0.00,Wunderground v.1.15,2013-03-05 03:14:00,
2013-03-04 19:20:00,64.7,27.0,29.97,South,179,10.0,14.0,24,0.00,,,0.00,Wunderground v.1.15,2013-03-05 03:20:00,
2013-03-04 19:26:00,64.4,27.8,29.97,South,180,10.0,11.0,25,0.00,,,0.00,Wunderground v.1.15,2013-03-05 03:26:00,
2013-03-04 19:32:00,64.0,27.4,29.97,SSE,167,9.0,11.0,25,0.00,,,0.00,Wunderground v.1.15,2013-03-05 03:32:00,
2013-03-04 19:38:00,63.3,27.8,29.97,South,169,10.0,13.0,26,0.00,,,0.00,Wunderground v.1.15,2013-03-05 03:38:00,
2013-03-04 19:44:00,62.8,27.4,29.97,South,173,11.0,12.0,26,0.00,,,0.00,Wunderground v.1.15,2013-03-05 03:44:00,
2013-03-04 19:50:00,62.4,27.0,29.97,SSE,159,10.0,12.0,26,0.00,,,0.00,Wunderground v.1.15,2013-03-05 03:50:00,
2013-03-04 19:56:00,62.1,27.7,29.97,South,169,10.0,12.0,27,0.00,,,0.00,Wunderground v.1.15,2013-03-05 03:56:00,
2013-03-04 20:02:00,61.8,27.4,29.97,SSE,163,11.0,14.0,27,0.00,,,0.00,Wunderground v.1.15,2013-03-05 04:02:00,
2013-03-04 20:08:00,61.6,27.3,29.97,SSE,167,11.0,14.0,27,0.00,,,0.00,Wunderground v.1.15,2013-03-05 04:08:00,
2013-03-04 20:14:00,61.4,27.1,29.97,SSE,154,10.0,11.0,27,0.00,,,0.00,Wunderground v.1.15,2013-03-05 04:14:00,
2013-03-04 20:20:00,61.4,27.1,29.98,SSE,162,7.0,7.0,27,0.00,,,0.00,Wunderground v.1.15,2013-03-05 04:20:00,
2013-03-04 20:26:00,61.2,26.9,29.98,SSE,168,5.0,7.0,27,0.00,,,0.00,Wunderground v.1.15,2013-03-05 04:26:00,
2013-03-04 20:32:00,60.9,25.7,29.98,WSW,246,3.0,4.0,26,0.00,,,0.00,Wunderground v.1.15,2013-03-05 04:32:00,
2013-03-04 20:38:00,60.4,26.2,29.98,South,178,1.0,6.0,27,0.00,,,0.00,Wunderground v.1.15,2013-03-05 04:38:00,
2013-03-04 20:44:00,59.9,25.8,29.98,South,180,2.0,4.0,27,0.00,,,0.00,Wunderground v.1.15,2013-03-05 04:44:00,
2013-03-04 20:50:00,59.4,25.4,29.98,South,182,2.0,2.0,27,0.00,,,0.00,Wunderground v.1.15,2013-03-05 04:50:00,
2013-03-04 20:56:00,59.0,25.9,29.98,WSW,243,1.0,2.0,28,0.00,,,0.00,Wunderground v.1.15,2013-03-05 04:56:00,
2013-03-04 21:00:00,58.7,25.6,29.98,WSW,242,2.0,2.0,28,0.00,,,0.00,Wunderground v.1.15,2013-03-05 05:00:00,
2013-03-04 21:04:00,58.4,25.4,29.98,WSW,242,2.0,2.0,28,0.00,,,0.00,Wunderground v.1.15,2013-03-05 05:04:00,
2013-03-04 21:10:00,58.0,25.0,29.98,WSW,243,1.0,1.0,28,0.00,,,0.00,Wunderground v.1.15,2013-03-05 05:10:00,
2013-03-04 21:16:00,57.6,25.5,29.98,WSW,242,0.0,1.0,29,0.00,,,0.00,Wunderground v.1.15,2013-03-05 05:16:00,
2013-03-04 21:18:00,57.4,25.4,29.99,WSW,242,0.0,1.0,29,0.00,,,0.00,Wunderground v.1.15,2013-03-05 05:18:00,
2013-03-04 21:24:00,56.9,24.9,29.99,WSW,242,0.0,0.0,29,0.00,,,0.00,Wunderground v.1.15,2013-03-05 05:24:00,
2013-03-04 21:30:00,56.5,25.4,29.99,WSW,242,0.0,0.0,30,0.00,,,0.00,Wunderground v.1.15,2013-03-05 05:30:00,
2013-03-04 21:36:00,56.1,25.8,29.99,WSW,243,1.0,1.0,31,0.00,,,0.00,Wunderground v.1.15,2013-03-05 05:36:00,
2013-03-04 21:42:00,55.8,25.6,29.99,WSW,246,1.0,1.0,31,0.00,,,0.00,Wunderground v.1.15,2013-03-05 05:42:00,
2013-03-04 21:48:00,55.5,25.3,29.99,West,280,1.0,2.0,31,0.00,,,0.00,Wunderground v.1.15,2013-03-05 05:48:00,
2013-03-04 21:54:00,55.3,25.9,29.99,West,280,1.0,1.0,32,0.00,,,0.00,Wunderground v.1.15,2013-03-05 05:54:00,
2013-03-04 21:59:00,55.1,25.7,29.99,West,280,0.0,1.0,32,0.00,,,0.00,Wunderground v.1.15,2013-03-05 05:59:00,
2013-03-04 22:04:00,55.0,26.4,29.99,West,280,0.0,0.0,33,0.00,,,0.00,Wunderground v.1.15,2013-03-05 06:04:00,
2013-03-04 22:10:00,54.8,26.2,29.99,West,280,0.0,0.0,33,0.00,,,0.00,Wunderground v.1.15,2013-03-05 06:10:00,
2013-03-04 22:16:00,54.6,26.0,29.99,NNE,12,1.0,3.0,33,0.00,,,0.00,Wunderground v.1.15,2013-03-05 06:16:00,
2013-03-04 22:22:00,54.4,25.9,29.99,NNE,27,2.0,3.0,33,0.00,,,0.00,Wunderground v.1.15,2013-03-05 06:22:00,
2013-03-04 22:28:00,54.3,26.5,29.99,NNE,28,1.0,2.0,34,0.00,,,0.00,Wunderground v.1.15,2013-03-05 06:28:00,
2013-03-04 22:34:00,54.2,26.4,29.99,NNE,26,0.0,0.0,34,0.00,,,0.00,Wunderground v.1.15,2013-03-05 06:34:00,
2013-03-04 22:40:00,54.1,25.6,29.99,NNE,19,0.0,2.0,33,0.00,,,0.00,Wunderground v.1.15,2013-03-05 06:40:00,
2013-03-04 22:46:00,53.9,26.1,29.99,NNE,17,0.0,1.0,34,0.00,,,0.00,Wunderground v.1.15,2013-03-05 06:46:00,
2013-03-04 22:52:00,53.7,26.0,29.99,NNE,17,0.0,3.0,34,0.00,,,0.00,Wunderground v.1.15,2013-03-05 06:52:00,
2013-03-04 22:58:00,53.5,25.8,29.99,NNE,17,0.0,1.0,34,0.00,,,0.00,Wunderground v.1.15,2013-03-05 06:58:00,
2013-03-04 23:04:00,53.3,25.6,29.99,NNE,18,1.0,3.0,34,0.00,,,0.00,Wunderground v.1.15,2013-03-05 07:04:00,
2013-03-04 23:10:00,53.0,26.0,29.99,NNE,18,1.0,1.0,35,0.00,,,0.00,Wunderground v.1.15,2013-03-05 07:10:00,
2013-03-04 23:16:00,52.7,25.8,29.99,NNE,18,0.0,1.0,35,0.00,,,0.00,Wunderground v.1.15,2013-03-05 07:16:00,
2013-03-04 23:22:00,52.6,25.7,29.99,NNE,18,0.0,0.0,35,0.00,,,0.00,Wunderground v.1.15,2013-03-05 07:22:00,
2013-03-04 23:28:00,52.4,25.5,29.99,NNE,17,1.0,1.0,35,0.00,,,0.00,Wunderground v.1.15,2013-03-05 07:28:00,
2013-03-04 23:34:00,52.3,25.4,29.99,North,9,1.0,2.0,35,0.00,,,0.00,Wunderground v.1.15,2013-03-05 07:34:00,
2013-03-04 23:40:00,52.3,25.4,29.99,North,5,1.0,3.0,35,0.00,,,0.00,Wunderground v.1.15,2013-03-05 07:40:00,
2013-03-04 23:46:00,52.3,25.4,29.99,North,5,2.0,6.0,35,0.00,,,0.00,Wunderground v.1.15,2013-03-05 07:46:00,
2013-03-04 23:52:00,52.4,25.5,29.99,North,5,3.0,3.0,35,0.00,,,0.00,Wunderground v.1.15,2013-03-05 07:52:00,
2013-03-04 23:58:00,52.4,25.5,30.00,North,5,1.0,3.0,35,0.00,,,0.00,Wunderground v.1.15,2013-03-05 07:58:00,